[[{"header":{"parameterUnit":"m.s-1","parameterCategory":1,"la1":30.2991,"la2":30.254,"lo1":-89.0895,"lo2":-89.0444,"dy":0.0017,"dx":0.0017,"nx":28,"ny":28,"refTime":"2025-11-08T03:00:00:Z","depth":0,"parameterNumber":2,"parameterNumberName":"U-component_of_WINDS"},"data":[0,0,0,0,0,0,0,0,0,0,0,0,0,0,0,0,0,0,0,0,0,0,0,0,0,0,0,0,0,0,0,0,0,0,0,0,0,0,0,0,0,0,0,0,0,0,0,0,0,0,0,0,0,0,0,0,0,0,1.7605,1.7607,0,1.7756,1.7758,1.7759,1.7865,1.7866,1.7867,1.7868,1.8019,1.8022,1.8026,0,0,0,0,0,0,0,0,0,0,0,0,0,1.7406,1.7409,1.7605,1.7607,1.7609,1.7756,1.7758,1.776,1.7865,1.7866,1.7867,1.7868,1.8018,1.8022,1.8026,0,0,0,0,0,0,0,0,0,0,0,0,0,1.7518,1.741,1.7604,1.7679,1.7687,1.7755,1.7758,1.776,1.7865,1.7866,1.7867,1.7869,1.8017,1.8022,1.8027,1.8032,0,0,1.8041,1.8044,0,0,0,0,0,0,0,0,1.7512,1.7525,1.7666,1.7674,1.7683,1.7793,1.7744,1.7851,1.7865,1.7797,1.7868,1.7869,1.7943,1.7954,1.7979,1.8039,1.8045,1.8042,1.8045,1.8047,1.8048,0,0,0,0,0,0,0,1.7504,1.752,1.7665,1.7668,1.7678,1.7705,1.7722,1.7764,1.7861,1.7803,1.7811,1.7828,1.7948,1.7974,1.7984,1.8048,1.8042,1.8046,1.8049,1.8051,1.8122,1.8121,0,0,0,0,0,0,1.7485,1.7512,1.766,1.7669,1.7599,1.7707,1.7726,1.7757,1.7861,1.7878,1.7827,1.7832,1.7965,1.7978,1.7989,1.8005,1.8047,1.8052,1.8054,1.8123,1.8122,1.8121,0,0,0,0,0,0,1.748,1.7497,1.7654,1.7593,1.7615,1.7709,1.7742,1.7759,1.7786,1.7879,1.7896,1.7836,1.7967,1.7983,1.8021,1.8011,1.8054,1.8058,1.8124,1.8123,1.8121,1.8033,0,0,0,0,0,0,1.7474,1.7495,1.7498,1.7592,1.7618,1.7683,1.7742,1.7761,1.7794,1.7803,1.7892,1.7908,1.7969,1.8014,1.8026,1.8019,1.8062,1.8126,1.8124,1.8122,1.8037,1.8028,1.8021,0,0,0,0,0,1.7467,1.7465,1.7497,1.7514,1.7624,1.7682,1.7697,1.7767,1.7793,1.7797,1.7857,1.7906,1.801,1.8017,1.8032,1.8025,1.8127,1.8124,1.8122,1.8041,1.803,1.8021,0,0,0,0,0,0,1.7365,1.7479,1.7516,1.7545,1.7603,1.77,1.7707,1.7754,1.7805,1.7811,1.7896,1.7915,1.7945,1.7989,1.7994,1.8038,1.8075,1.8075,1.8007,1.7998,1.799,1.7979,1.8066,0,0,0,0,0,1.7346,1.7385,1.7482,1.7499,1.7527,1.7611,1.7639,1.7689,1.7753,1.7777,1.784,1.7899,1.7946,1.7975,1.8022,1.8044,1.8066,1.8048,1.8039,1.8032,1.8032,1.8049,1.8042,1.8113,1.8113,1.8113,0,0,1.7308,1.7375,1.7394,1.748,1.7531,1.757,1.7631,1.7668,1.7698,1.7783,1.7824,1.7872,1.7944,1.7975,1.7991,1.8012,1.8018,1.8029,1.8023,1.8027,1.8046,1.8039,1.8033,1.8111,1.8112,1.8112,0,0,1.7257,1.7311,1.7332,1.7383,1.746,1.7517,1.7522,1.7612,1.7648,1.7691,1.7757,1.7792,1.787,1.7919,1.7954,1.7925,1.7972,1.7938,1.7896,1.7912,1.7906,1.7902,1.7892,1.7888,1.7937,1.7937,1.7937,0,1.7199,1.7259,1.7337,1.7371,1.7408,1.7489,1.7511,1.7556,1.7644,1.7667,1.769,1.7791,1.7845,1.789,1.7883,1.7908,1.7917,1.7928,1.7901,1.7897,1.7894,1.7886,1.7882,1.7932,1.7933,1.7933,1.7934,0,1.7185,1.7226,1.7234,1.7319,1.7357,1.7384,1.7466,1.7495,1.7542,1.7596,1.764,1.7708,1.7772,1.7786,1.7832,1.7838,1.7849,1.7885,1.7924,1.7881,1.7876,1.7873,1.7926,1.7928,1.7929,1.793,0,0,1.7073,1.7202,1.7204,1.7245,1.7337,1.737,1.7402,1.7466,1.749,1.7549,1.7578,1.7644,1.7679,1.7718,1.777,1.7784,1.7758,1.7819,1.7822,1.7806,1.7772,1.7744,1.7739,1.779,1.779,1.779,1.7766,0,1.7037,1.71,1.7171,1.7209,1.7249,1.7328,1.7356,1.7416,1.7468,1.7509,1.7567,1.7613,1.7654,1.7679,1.7696,1.7758,1.7753,1.776,1.7819,1.782,1.7799,1.7736,1.7707,1.7681,1.7764,1.7764,1.7763,0,1.7003,1.706,1.7102,1.7193,1.7212,1.7236,1.7302,1.7341,1.7411,1.7448,1.7494,1.755,1.7588,1.7623,1.7678,1.7681,1.771,1.7744,1.7745,1.7753,1.7789,1.7743,1.7674,1.767,1.776,1.7761,1.7761,0,1.6918,1.7005,1.7043,1.7075,1.7181,1.7197,1.7242,1.7313,1.7348,1.7405,1.7429,1.7489,1.7523,1.7568,1.764,1.7658,1.7687,1.7727,1.772,1.7718,1.7722,1.7721,1.7657,1.7739,1.7739,1.7739,1.774,0,1.6871,1.6894,1.7006,1.7029,1.7058,1.714,1.7166,1.7218,1.7282,1.7316,1.7388,1.7418,1.7511,1.7553,1.7609,1.7647,1.7661,1.7693,1.7707,1.7687,1.7683,1.7706,1.771,1.7739,1.7739,1.7739,1.7739,0,1.6781,1.6857,1.6903,1.7002,1.7027,1.7044,1.7128,1.7153,1.7211,1.7254,1.7269,1.7359,1.7412,1.7488,1.7564,1.7602,1.7632,1.7655,1.7609,1.7618,1.7606,1.7607,1.7556,1.7554,1.7636,1.7635,1.7634,0,1.6746,1.6766,1.6867,1.6896,1.6939,1.6985,1.7021,1.7104,1.7139,1.7222,1.7237,1.7297,1.7348,1.743,1.7502,1.7561,1.7587,1.7566,1.7596,1.7576,1.7588,1.7586,1.759,1.7558,1.7556,1.7555,1.7554,0,1.6676,1.6713,1.6764,1.6828,1.687,1.6924,1.6982,1.7001,1.7096,1.7132,1.7189,1.7229,1.7308,1.7367,1.7436,1.7483,1.7534,1.7544,1.7546,1.7525,1.7498,1.7514,1.7589,1.7545,1.7546,1.7547,1.7547,1.7548,1.6614,1.6636,1.6711,1.6766,1.6818,1.6871,1.69,1.6962,1.7011,1.7083,1.7128,1.7183,1.7255,1.7354,1.7398,1.7442,1.7463,1.7465,1.7466,1.7465,1.7459,1.7491,1.7455,1.7455,1.7456,1.7456,1.7456,0,1.6548,1.6601,1.6651,1.673,1.6773,1.682,1.6886,1.6919,1.6966,1.7029,1.708,1.7145,1.7203,1.7281,1.7344,1.7364,1.739,1.7378,1.7378,1.7388,1.7435,1.7428,1.7357,1.7357,1.7357,1.7357,1.7357,1.7357,1.6519,1.656,1.6607,1.6675,1.6728,1.6783,1.6817,1.6866,1.6917,1.6988,1.7037,1.7087,1.7157,1.7226,1.7282,1.7303,1.7323,1.7305,1.7333,1.7376,1.7385,1.7393,1.7387,1.7308,1.7308,1.7283,1.7282,1.7282]},{"header":{"parameterUnit":"m.s-1","parameterCategory":1,"la1":30.2991,"la2":30.254,"lo1":-89.0895,"lo2":-89.0444,"dy":0.0017,"dx":0.0017,"nx":28,"ny":28,"refTime":"2025-11-08T03:00:00:Z","depth":0,"parameterNumber":3,"parameterNumberName":"V-component_of_WINDS"},"data":[0,0,0,0,0,0,0,0,0,0,0,0,0,0,0,0,0,0,0,0,0,0,0,0,0,0,0,0,0,0,0,0,0,0,0,0,0,0,0,0,0,0,0,0,0,0,0,0,0,0,0,0,0,0,0,0,0,0,0.8886,0.8885,0,0.8756,0.8755,0.8753,0.8691,0.8691,0.8691,0.8691,0.8556,0.8552,0.8549,0,0,0,0,0,0,0,0,0,0,0,0,0,0.9078,0.9075,0.8887,0.8885,0.8883,0.8756,0.8755,0.8753,0.8691,0.8691,0.8691,0.8691,0.8557,0.8553,0.8548,0,0,0,0,0,0,0,0,0,0,0,0,0,0.8976,0.9074,0.8887,0.8837,0.8831,0.8757,0.8755,0.8752,0.8691,0.8691,0.8691,0.8691,0.8558,0.8553,0.8548,0.8512,0,0,0.8531,0.8528,0,0,0,0,0,0,0,0,0.8982,0.8969,0.8846,0.884,0.8834,0.874,0.8772,0.8672,0.8691,0.8744,0.8691,0.8691,0.8617,0.8607,0.8582,0.8506,0.85,0.853,0.8527,0.8525,0.8523,0,0,0,0,0,0,0,0.8989,0.8974,0.8835,0.8844,0.8837,0.882,0.8806,0.8753,0.8682,0.874,0.8735,0.872,0.8614,0.8587,0.8578,0.8498,0.8531,0.8526,0.8522,0.852,0.8383,0.8383,0,0,0,0,0,0,0.9005,0.8981,0.8839,0.8831,0.891,0.8817,0.8801,0.877,0.8682,0.8669,0.872,0.8718,0.8597,0.8585,0.8573,0.8524,0.8525,0.852,0.8516,0.8384,0.8383,0.8383,0,0,0,0,0,0,0.9009,0.8993,0.8844,0.8904,0.8884,0.8813,0.8779,0.8767,0.8741,0.8667,0.8654,0.8707,0.8596,0.8581,0.8527,0.8519,0.8517,0.8512,0.8384,0.8384,0.8383,0.8428,0,0,0,0,0,0,0.9015,0.8995,0.8981,0.8905,0.8881,0.8802,0.8779,0.8765,0.8732,0.8728,0.8651,0.8639,0.8595,0.8536,0.8522,0.8511,0.8508,0.8385,0.8384,0.8383,0.8427,0.8429,0.8431,0,0,0,0,0,0.9022,0.8999,0.8981,0.8964,0.8863,0.8801,0.8788,0.8739,0.8732,0.8717,0.8669,0.8641,0.8522,0.8531,0.8515,0.8502,0.8385,0.8384,0.8383,0.8426,0.8428,0.8431,0,0,0,0,0,0,0.9076,0.8988,0.8967,0.8919,0.8868,0.8791,0.8771,0.8743,0.8693,0.8691,0.8631,0.8615,0.8566,0.8528,0.854,0.8462,0.8451,0.8447,0.8489,0.849,0.8492,0.8502,0.8503,0,0,0,0,0,0.9083,0.9041,0.8966,0.893,0.8906,0.8843,0.8814,0.8781,0.8725,0.8703,0.8652,0.8599,0.8549,0.8517,0.8468,0.8421,0.8402,0.8404,0.8406,0.8408,0.8405,0.8376,0.8376,0.838,0.838,0.838,0,0,0.9095,0.9042,0.9019,0.894,0.8896,0.8853,0.8825,0.8781,0.8748,0.8696,0.8643,0.8603,0.8539,0.8488,0.8463,0.8456,0.84,0.8407,0.8409,0.8405,0.8375,0.8375,0.8375,0.838,0.838,0.838,0,0,0.9097,0.9052,0.9018,0.8975,0.8909,0.8867,0.8859,0.8786,0.8757,0.8703,0.8662,0.8621,0.8538,0.8493,0.846,0.8443,0.8414,0.8428,0.8438,0.8411,0.841,0.841,0.8403,0.8401,0.8425,0.8425,0.8426,0,0.9121,0.9055,0.9003,0.8961,0.8926,0.8877,0.8841,0.8801,0.8723,0.87,0.8692,0.8585,0.8539,0.8476,0.8472,0.8447,0.8434,0.8437,0.8415,0.8413,0.8412,0.8405,0.8402,0.8428,0.8427,0.8427,0.8427,0,0.9087,0.9042,0.9021,0.8947,0.891,0.8871,0.8812,0.8781,0.875,0.8708,0.8652,0.8594,0.8532,0.8514,0.8484,0.8447,0.8444,0.8426,0.8414,0.8415,0.8406,0.8403,0.843,0.843,0.8429,0.8429,0,0,0.912,0.9017,0.901,0.8975,0.8899,0.8862,0.882,0.8759,0.8733,0.868,0.8642,0.8571,0.8554,0.8516,0.848,0.8456,0.8444,0.844,0.8438,0.8443,0.8398,0.8412,0.841,0.8425,0.8424,0.8423,0.8404,0,0.911,0.9034,0.8985,0.8927,0.8884,0.8836,0.8798,0.8747,0.8707,0.8663,0.8618,0.8568,0.855,0.8526,0.85,0.8451,0.8434,0.8452,0.8388,0.8386,0.8406,0.8406,0.842,0.8405,0.84,0.84,0.8399,0,0.9089,0.9038,0.8976,0.8903,0.8883,0.8851,0.879,0.8749,0.8689,0.8661,0.8618,0.8581,0.8533,0.8524,0.8456,0.8469,0.8439,0.8411,0.8409,0.8401,0.8393,0.8398,0.8399,0.8397,0.8394,0.8394,0.8395,0,0.9119,0.9034,0.8986,0.8957,0.8871,0.885,0.8812,0.8752,0.8718,0.8664,0.8641,0.8583,0.8551,0.8505,0.8453,0.8451,0.8389,0.8376,0.8364,0.8365,0.8354,0.8355,0.835,0.8335,0.8335,0.8335,0.8335,0,0.9114,0.9078,0.8998,0.8968,0.8926,0.8869,0.8828,0.8787,0.8733,0.8693,0.8648,0.8611,0.8544,0.8499,0.8457,0.8406,0.8392,0.8367,0.8357,0.8372,0.8375,0.8352,0.8351,0.8334,0.8335,0.8335,0.8335,0,0.914,0.9086,0.903,0.8952,0.8932,0.8904,0.8837,0.8805,0.8762,0.8712,0.8697,0.8628,0.8573,0.8515,0.844,0.8412,0.8362,0.8348,0.8383,0.8377,0.8368,0.8369,0.8347,0.8341,0.8331,0.8331,0.8332,0,0.9141,0.9112,0.9031,0.9002,0.8966,0.8919,0.8883,0.8825,0.879,0.8719,0.8695,0.8636,0.8586,0.8498,0.8441,0.8383,0.8366,0.8362,0.8357,0.8372,0.8365,0.8368,0.8364,0.8365,0.8365,0.8366,0.8366,0,0.9147,0.9121,0.9073,0.9014,0.8973,0.8924,0.8873,0.8852,0.8783,0.8746,0.8689,0.865,0.8572,0.8513,0.8448,0.8408,0.8375,0.8368,0.8362,0.8377,0.8398,0.8386,0.8388,0.8369,0.8368,0.8368,0.8368,0.8368,0.916,0.9131,0.907,0.9017,0.8973,0.8926,0.8892,0.8844,0.8795,0.8728,0.8696,0.8639,0.8577,0.8485,0.8446,0.8399,0.839,0.8381,0.8379,0.8378,0.8381,0.8406,0.8386,0.8386,0.8386,0.8386,0.8386,0,0.9163,0.9121,0.9073,0.9003,0.8961,0.8934,0.8876,0.8842,0.8792,0.8737,0.8689,0.8622,0.8564,0.8502,0.844,0.8414,0.8397,0.84,0.8401,0.8392,0.8393,0.8404,0.8414,0.8414,0.8414,0.8414,0.8414,0.8414,0.9161,0.9111,0.9077,0.9004,0.8961,0.8905,0.8873,0.8829,0.8785,0.8713,0.8665,0.8625,0.8566,0.8499,0.8445,0.8428,0.8407,0.8414,0.8392,0.8394,0.8392,0.839,0.84,0.841,0.841,0.8395,0.8395,0.8395]}]]